SHIJIAN 6 03B (SJ-6 03B)

Satellite information

Favourite Embed

Satellite Type and Status

PAYLOADIN ORBIT

Key statistics

Satellite SHIJIAN 6 03B (SJ-6 03B) at a glance.

Uptime

6161

Days in orbit

Revolutions

≈ 15.0

Per day

Orbit

SSO

Sun Synchronous Orbit

Inclination

97.9

Latest

Satellite identification and parameters

Extended collection of information and parameters for SHIJIAN 6 03B (SJ-6 03B).

Object identification

Identified? True

Debris? False

Object name: SHIJIAN 6 03B (SJ-6 03B)

International designator: 2008-053B

Object number (NORAD): 33409

Object ID (CCSDS): 33409

Country: PEOPLES REPUBLIC OF CHINA (PRC)

Current information (Y/N): Y

RCS size: LARGE

Orbital parameters

Period: 95.817 minutes

Inclination: 97.8724 deg

SMA: 6936.224 km

Apoapsis: 570.592 km

Periapsis: 545.586 km

RAAN: 260.2497 deg

Eccentricy: 0.00180258

Argument of periapsis: 276.439 deg

Mean anomaly: 83.4782 deg

Mean motion: 15.02858468 rev/day

Mean motion (dot): 0.00001858 rev/day2

B* drag term: 0.00014297738 1/REarth

Two-line elements (TLE)

Creation date: Sept. 7, 2025, 3:09 a.m.

Reference frame: TEME

Reference center: EARTH

Epoch: Sept. 7, 2025, 12:07 a.m. UTC

TLE line 0: 0 SHIJIAN 6 03B (SJ-6 03B)

TLE line 1: 1 33409U 08053B 25250.00520630 .00001858 00000-0 14298-3 0 9994

TLE line 2: 2 33409 97.8724 260.2497 0018026 276.4390 83.4782 15.02858468920196

Live tracking on map

Real-time ground track for satellite SHIJIAN 6 03B (SJ-6 03B).

In-orbit conjunctions

There are no conjunctions computed for SHIJIAN 6 03B (SJ-6 03B), at the moment. Check back to stay up to date, as we update our databases every day.

Go to all conjunctions

Associated space launch

It was announced that the two satellites had a design life of at least two years, and would be used to probe the space environment, radiation and its effects, record space physical environment parameters, and conduct other related space experiments.

SHIJIAN 6 03B (SJ-6 03B) was lifted into orbit during the mission ‘Long March 4B | Shi Jian 6E & 6F’, on board a Long March 4B space rocket.

The launch took place on Oct. 25, 2008, 1:15 a.m. from Launch Complex 9.

For more information about the launch, click the button.

Launch to space Long March 4B | Shi Jian 6E & 6F
Long March 4B | Shi Jian 6E & 6F

Agency: N/A

Status: Launch Successful

Launch date: Oct. 25, 2008, 1:15 a.m. UTC

Rocket: Long March 4B

Launch pad: Launch Complex 9

Location: Taiyuan Satellite Launch Center, People's Republic of China

...

Latest news about this satellite

There are no fresh news available about this satellite. Check back as we update our databases every day.


Newsletter sign-up

Weekly statistics, charts and insights to help you stay on top of the space industry.